Weather History for Salem, OR

Change the Weather History Date:

Thursday, February 9, 2012

  Actual Average Record
Temperature  
Mean Temperature 50 °F 43 °F  
Max Temperature 54 °F 51 °F 66 °F (1951)
Min Temperature 46 °F 34 °F 13 °F (1929)
Degree Days  
Heating Degree Days 15 22  
Month to date heating degree days 189 205  
Since 1 July heating degree days 2665 2832  
Cooling Degree Days 0 0  
Month to date cooling degree days 0 0  
Year to date cooling degree days 0 0  
Moisture  
Dew Point 46 °F    
Average Humidity 90    
Maximum Humidity 100    
Minimum Humidity 80    
Precipitation  
Precipitation 0.11 in 0.17 in 2.35 in (1961)
Month to date precipitation 0.73 1.53  
Year to date precipitation 11.05 7.49  
Snow  
Snow 0.00 in - - ()
Month to date snowfall 0.0  
Snow Depth 0.00 in    
Sea Level Pressure  
Sea Level Pressure 30.18 in    
Wind  
Wind Speed 2 mph (NNE)    
Max Wind Speed 13 mph    
Max Gust Speed 14 mph    
Visibility 5 miles    
Events Rain    
T = Trace of Precipitation, MM = Missing Value Source: NWS Daily Summary

Daily Weather History Graph

Daily Weather History Graph

Search for Another Location

Airport:

Trip Planner

Search our weather history database for the weather conditions in past years. The results will help you decide how hot, cold, wet, or windy it might be!

Date:

Astronomy

Feb. 09, 2012 Rise Set
Actual Time 7:21 AM PST 5:31 PM PST
Civil Twilight 6:51 AM PST 6:01 PM PST
Nautical Twilight 6:16 AM PST 6:36 PM PST
Astronomical Twilight 5:42 AM PST 7:10 PM PST
Moon 8:15 PM PST (2/9) 7:52 AM PST (2/9)
Length of Visible Light 11h 10m
Length of Day
10h 09m
Waning Gibbous, 95% of the Moon is Illuminated
Feb 9
Waning Gibbous
Feb 14
Last Quarter
Feb 21
New
Feb 29
First Quarter
Mar 8
Full

Hourly Weather History & Observations

Time (PST) Temp. Windchill Dew Point Humidity Pressure Visibility Wind Dir Wind Speed Gust Speed Precip Events Conditions
12:04 AM 46.4 °F 44.3 °F 46.4 °F 100% 30.26 in 3.0 mi West 4.6 mph - N/A   Overcast
12:56 AM 46.9 °F - 45.0 °F 93% 30.25 in 3.0 mi Calm Calm - 0.00 in   Overcast
1:05 AM 46.4 °F - 46.4 °F 100% 30.26 in 2.5 mi Calm Calm - 0.00 in Rain Light Rain
1:39 AM 46.4 °F 45.2 °F 46.4 °F 100% 30.25 in 1.5 mi East 3.5 mph - 0.01 in Rain Light Rain
1:53 AM 46.4 °F 45.2 °F 46.4 °F 100% 30.26 in 1.0 mi East 3.5 mph - 0.01 in Rain Light Rain
1:56 AM 46.0 °F 44.8 °F 46.0 °F 100% 30.26 in 1.0 mi East 3.5 mph - 0.01 in Rain Light Rain
2:02 AM 46.4 °F 44.3 °F 46.4 °F 100% 30.25 in 1.2 mi ENE 4.6 mph - 0.00 in Rain Light Rain
2:07 AM 46.4 °F 44.3 °F 46.4 °F 100% 30.25 in 1.8 mi East 4.6 mph - 0.00 in Rain Light Rain
2:14 AM 46.4 °F - 46.4 °F 100% 30.25 in 2.5 mi Calm Calm - 0.00 in Rain Light Rain
2:32 AM 46.4 °F 44.3 °F 46.4 °F 100% 30.23 in 3.0 mi NE 4.6 mph - 0.00 in Rain Light Rain
2:56 AM 46.9 °F - 45.0 °F 93% 30.24 in 3.0 mi NNW 4.6 mph - 0.00 in Rain Light Rain
3:39 AM 46.4 °F - 46.4 °F 100% 30.22 in 2.0 mi Calm Calm - 0.02 in Rain Light Rain
3:56 AM 46.9 °F - 46.0 °F 97% 30.22 in 3.0 mi Calm Calm - 0.03 in Rain Light Rain
4:06 AM 46.4 °F 45.2 °F 46.4 °F 100% 30.22 in 2.5 mi NW 3.5 mph - 0.01 in Rain Light Rain
4:53 AM 46.4 °F - 46.4 °F 100% 30.20 in 3.0 mi Calm Calm - 0.02 in Rain Light Rain
4:56 AM 46.9 °F - 46.0 °F 97% 30.21 in 4.0 mi Calm Calm - 0.02 in Rain Light Rain
5:29 AM 46.4 °F - 44.6 °F 93% 30.19 in 2.5 mi Calm Calm - 0.02 in Rain Light Rain
5:42 AM 46.4 °F - 46.4 °F 100% 30.19 in 1.5 mi Calm Calm - 0.02 in Rain Light Rain
5:49 AM 46.4 °F - 46.4 °F 100% 30.20 in 1.2 mi Calm Calm - 0.03 in Rain Light Rain
5:56 AM 46.9 °F - 46.0 °F 97% 30.19 in 1.5 mi Calm Calm - 0.03 in Rain Light Rain
6:10 AM 46.4 °F - 46.4 °F 100% 30.17 in 1.0 mi Calm Calm - 0.00 in Rain Light Rain
6:24 AM 46.4 °F - 46.4 °F 100% 30.17 in 2.0 mi Calm Calm - 0.00 in Rain Light Rain
6:38 AM 46.4 °F 42.9 °F 46.4 °F 100% 30.19 in 5.0 mi SW 6.9 mph - 0.00 in   Overcast
6:56 AM 46.9 °F - 46.0 °F 97% 30.19 in 5.0 mi Calm Calm - 0.01 in Rain Light Rain
7:56 AM 46.9 °F - 46.0 °F 97% 30.19 in 2.0 mi WNW 3.5 mph - 0.01 in   Overcast
8:34 AM 48.2 °F - 46.4 °F 93% 30.20 in 3.0 mi Calm Calm - N/A   Overcast
8:56 AM 48.0 °F - 46.9 °F 96% 30.21 in 3.0 mi North 3.5 mph - N/A   Overcast
9:56 AM 48.9 °F - 46.9 °F 93% 30.22 in 7.0 mi NE 4.6 mph - N/A   Overcast
10:56 AM 48.9 °F - 46.9 °F 93% 30.24 in 4.0 mi Calm Calm - N/A   Overcast
11:56 AM 48.9 °F - 46.9 °F 93% 30.22 in 5.0 mi Calm Calm - N/A   Overcast
12:56 PM 51.1 °F - 48.0 °F 89% 30.21 in 10.0 mi Calm Calm - N/A   Overcast
1:56 PM 52.0 °F - 48.9 °F 89% 30.18 in 10.0 mi Calm Calm - N/A   Overcast
2:56 PM 53.1 °F - 48.9 °F 86% 30.17 in 10.0 mi Calm Calm - N/A   Overcast
3:56 PM 52.0 °F - 48.0 °F 86% 30.16 in 10.0 mi North 6.9 mph - N/A   Overcast
4:56 PM 51.1 °F - 48.0 °F 89% 30.14 in 10.0 mi NNE 4.6 mph - N/A   Overcast
5:56 PM 50.0 °F - 48.0 °F 93% 30.11 in 9.0 mi North 3.5 mph - N/A   Overcast
6:56 PM 48.9 °F - 48.0 °F 97% 30.08 in 8.0 mi Calm Calm - N/A   Overcast
7:56 PM 48.9 °F - 46.9 °F 93% 30.06 in 7.0 mi NW 3.5 mph - N/A   Overcast
8:52 PM 48.2 °F - 44.6 °F 87% 30.04 in 10.0 mi North 4.6 mph - N/A   Overcast
8:56 PM 48.0 °F - 43.0 °F 83% 30.04 in 10.0 mi North 4.6 mph - N/A   Overcast
9:56 PM 48.0 °F - 44.1 °F 86% 30.04 in 10.0 mi Calm Calm - N/A   Mostly Cloudy
10:10 PM 46.4 °F - 44.6 °F 93% 30.03 in 10.0 mi Calm Calm - N/A   Partly Cloudy
10:56 PM 46.9 °F - 44.1 °F 90% 30.01 in 10.0 mi Variable 3.5 mph - N/A   Mostly Cloudy
11:56 PM 46.0 °F 44.8 °F 43.0 °F 89% 30.01 in 10.0 mi NW 3.5 mph - N/A   Clear